sat.trackr.live / text

‹ back to catalog

SKIF-D

NORAD 54153 · 2022-139D

PAYLOAD ACTIVE UNKNOWN

§ Identity

Operator
Country
CIS
Launch date
2022-10-22
Launch site
VOSTO
Launch vehicle
Mass (kg)
RCS (m²)

External: N2YO · Heavens-Above · Gunter

§ Orbital elements

Epoch: 2026-05-24T06:34:04.657728Z

Period
287.75 min
Inclination
89.9543°
Eccentricity
0.0007377
Mean motion
5.00435639 rev/d
Perigee alt
8,049.1 km
Apogee alt
8,070.4 km
Semi-major
14,437.9 km
B*
0.0000e+0
RAAN
96.6746°
Arg perigee
209.4053°
Mean anomaly
150.5897°
Rev number
6,291

§ Raw data

SKIF-D1 54153U 22139D   26144.27366502  .00000017  00000+0  00000+0 0  99992 54153  89.9543  96.6746 0007377 209.4053 150.5897  5.00435639 62911

JSON: /api/v1/satellites/54153 · /tle

For live sub-satellite position, see the globe view (requires WebGL).

§ Visibility from observer

Set your observer location to see the next 7 days of passes ≥ 10°. The values pass through the URL so the page stays shareable.

No JS? Fill the form by hand. The geolocation button needs JavaScript.

§ Radio — SatNOGS DB

ModeDescriptionDownlinkUplink
FM Mode U 435.466 MHz
FM Mode U - TLM 435.566 MHz

2 transmitters · refreshed weekly from db.satnogs.org